User: anonymous   Login
Location: Unspecified
(0.0000°N, 0.0000°E)
Time: 01:26:17
(UTC+00:00)
Language:

CHUBUSAT 2 - Orbit

View from above orbital plane
View from above orbital plane
View from above satellite
View from above satellite

Ground track
Ground track

The orbit data is extracted from the following two-line orbital elements,

1 41338U 16012B   17266.25441028 +.00000492 +00000-0 +31917-4 0  9997
2 41338 031.0028 209.4027 0013950 309.8198 050.1209 14.99808782087722
Epoch (UTC): 23 September 2017 06:06:21
Eccentricity: 0.0013950
inclination: 31.0028°
perigee height: 558 km
apogee height: 577 km
right ascension of ascending node: 209.4027°
argument of perigee: 309.8198°
revolutions per day: 14.99808782
mean anomaly at epoch: 50.1209°
orbit number at epoch: 8772

The dashed part of the orbit path shows where the satellite is in the earth's shadow,  

DLR